| time (UTC) | temp C | wind direction | speed KPH | gust KPH | rain 1hr cm | rain 24hr cm | rain mn cm | humidity % | barometer mb |
| 20260906173820 | 25 | 360 | 1.6 | 3.2 | 0.00 | 0.00 | 0.00 | 56 | 1024.5 |
| 20260906171820 | 26 | 135 | 0.0 | 0.0 | 0.00 | 0.00 | 0.00 | 56 | 1024.5 |
| 20260906170819 | 25 | 86 | 1.6 | 4.8 | 0.00 | 0.00 | 0.00 | 57 | 1024.5 |
| 20260906165821 | 25 | 225 | 0.0 | 0.0 | 0.00 | 0.00 | 0.00 | 57 | 1024.5 |
| 20260906164019 | 25 | 135 | 4.8 | 6.4 | 0.00 | 0.00 | 0.00 | 58 | 1024.7 |
| 20260906163022 | 25 | 137 | 3.2 | 6.4 | 0.00 | 0.00 | 0.00 | 57 | 1024.7 |
| 20260906162120 | 25 | 122 | 0.0 | 1.6 | 0.00 | 0.00 | 0.00 | 58 | 1024.7 |
| 20260906161121 | 24 | 360 | 1.6 | 1.6 | 0.00 | 0.00 | 0.00 | 57 | 1024.9 |
| 20260906155220 | 24 | 136 | 1.6 | 4.8 | 0.00 | 0.00 | 0.00 | 58 | 1024.8 |
| 20260906155121 | 24 | 146 | 3.2 | 6.4 | 0.00 | 0.00 | 0.00 | 58 | 1024.8 |
| 20260906154122 | 25 | 74 | 0.0 | 0.0 | 0.00 | 0.00 | 0.00 | 58 | 1024.9 |
| 20260906153121 | 25 | 157 | 0.0 | 0.0 | 0.00 | 0.00 | 0.00 | 58 | 1024.8 |
| 20260906152121 | 24 | 270 | 0.0 | 0.0 | 0.00 | 0.00 | 0.00 | 62 | 1024.9 |
| 20260906151123 | 23 | 360 | 0.0 | 0.0 | 0.00 | 0.00 | 0.00 | 66 | 1024.9 |
| 20260906150122 | 22 | 90 | 0.0 | 0.0 | 0.00 | 0.00 | 0.00 | 68 | 1025.0 |
| 20260906144222 | 21 | 315 | 0.0 | 0.0 | 0.00 | 0.00 | 0.00 | 69 | 1025.2 |
| 20260906141221 | 20 | 315 | 0.0 | 0.0 | 0.00 | 0.00 | 0.00 | 79 | 1025.1 |
| 20260906140221 | 18 | 315 | 0.0 | 0.0 | 0.00 | 0.00 | 0.00 | 85 | 1025.0 |
| 20260906135220 | 17 | 315 | 0.0 | 0.0 | 0.00 | 0.00 | 0.00 | 93 | 1025.2 |
| 20260906134222 | 16 | 315 | 0.0 | 0.0 | 0.00 | 0.00 | 0.00 | 96 | 1025.2 |
| 20260906132321 | 15 | 315 | 0.0 | 0.0 | 0.00 | 0.00 | 0.00 | 97 | 1025.3 |
| 20260906131322 | 13 | 315 | 1.6 | 3.2 | 0.00 | 0.03 | 0.00 | 98 | 1025.3 |
| 20260906125420 | 12 | 180 | 0.0 | 0.0 | 0.00 | 0.03 | 0.00 | 99 | 1025.1 |
| 20260906124321 | 12 | 180 | 0.0 | 0.0 | 0.00 | 0.03 | 0.00 | 99 | 1024.9 |
| 20260906123419 | 12 | 180 | 0.0 | 0.0 | 0.00 | 0.03 | 0.00 | 99 | 1024.8 |
| 20260906122422 | 12 | 180 | 0.0 | 0.0 | 0.00 | 0.03 | 0.00 | 98 | 1024.6 |
| 20260906121422 | 12 | 180 | 0.0 | 0.0 | 0.00 | 0.03 | 0.00 | 98 | 1024.8 |
| 20260906121321 | 12 | 180 | 0.0 | 0.0 | 0.00 | 0.03 | 0.00 | 98 | 1024.7 |
| 20260906120322 | 11 | 180 | 0.0 | 0.0 | 0.00 | 0.03 | 0.00 | 98 | 1024.7 |
| 20260906115322 | 11 | 180 | 0.0 | 0.0 | 0.00 | 0.03 | 0.00 | 98 | 1024.7 |
| 20260906113321 | 11 | 180 | 0.0 | 0.0 | 0.00 | 0.03 | 0.00 | 98 | 1024.5 |
| 20260906112419 | 11 | 180 | 0.0 | 0.0 | 0.00 | 0.03 | 0.00 | 98 | 1024.5 |
| 20260906111422 | 12 | 180 | 0.0 | 0.0 | 0.00 | 0.03 | 0.00 | 98 | 1024.3 |
| 20260906111321 | 12 | 180 | 0.0 | 0.0 | 0.00 | 0.03 | 0.00 | 98 | 1024.3 |
| 20260906110320 | 12 | 180 | 0.0 | 0.0 | 0.00 | 0.03 | 0.00 | 98 | 1024.4 |
| 20260906105320 | 12 | 180 | 0.0 | 0.0 | 0.00 | 0.03 | 0.00 | 97 | 1024.3 |
| 20260906104322 | 12 | 180 | 0.0 | 0.0 | 0.00 | 0.03 | 0.00 | 98 | 1024.1 |
| 20260906103320 | 12 | 180 | 0.0 | 0.0 | 0.00 | 0.03 | 0.00 | 98 | 1024.0 |
| 20260906101321 | 12 | 180 | 0.0 | 0.0 | 0.00 | 0.03 | 0.00 | 98 | 1024.1 |
| 20260906100321 | 12 | 180 | 0.0 | 0.0 | 0.00 | 0.03 | 0.00 | 97 | 1024.0 |
| 20260906100223 | 12 | 180 | 0.0 | 0.0 | 0.00 | 0.03 | 0.00 | 98 | 1024.0 |
| 20260906094221 | 12 | 180 | 0.0 | 0.0 | 0.00 | 0.03 | 0.00 | 97 | 1024.1 |
| 20260906093221 | 12 | 180 | 0.0 | 0.0 | 0.00 | 0.03 | 0.00 | 97 | 1024.0 |
| 20260906092220 | 12 | 180 | 0.0 | 0.0 | 0.00 | 0.03 | 0.00 | 98 | 1023.8 |
| 20260906091319 | 12 | 180 | 0.0 | 0.0 | 0.00 | 0.03 | 0.00 | 97 | 1023.9 |
| 20260906085220 | 12 | 180 | 0.0 | 0.0 | 0.00 | 0.03 | 0.00 | 97 | 1024.0 |
| 20260906084219 | 12 | 180 | 0.0 | 0.0 | 0.00 | 0.03 | 0.00 | 97 | 1024.1 |
| 20260906083220 | 12 | 180 | 0.0 | 0.0 | 0.00 | 0.03 | 0.00 | 97 | 1024.3 |
| 20260906082320 | 13 | 180 | 0.0 | 0.0 | 0.00 | 0.03 | 0.00 | 97 | 1024.0 |
| 20260906081321 | 13 | 180 | 0.0 | 0.0 | 0.00 | 0.03 | 0.00 | 97 | 1024.0 |
| 20260906080421 | 13 | 180 | 0.0 | 0.0 | 0.00 | 0.03 | 0.00 | 97 | 1023.7 |
| 20260906075421 | 13 | 180 | 0.0 | 0.0 | 0.00 | 0.03 | 0.00 | 96 | 1023.8 |
| 20260906074419 | 13 | 180 | 0.0 | 0.0 | 0.00 | 0.03 | 0.00 | 97 | 1023.7 |
| 20260906072519 | 13 | 180 | 0.0 | 0.0 | 0.00 | 0.03 | 0.00 | 97 | 1023.8 |
| 20260906071521 | 13 | 180 | 0.0 | 0.0 | 0.00 | 0.03 | 0.00 | 97 | 1023.7 |
| 20260906070520 | 13 | 180 | 0.0 | 0.0 | 0.00 | 0.03 | 0.00 | 95 | 1023.6 |
| 20260906065521 | 13 | 180 | 0.0 | 0.0 | 0.00 | 0.03 | 0.00 | 96 | 1023.7 |
| 20260906064620 | 13 | 180 | 0.0 | 0.0 | 0.00 | 0.03 | 0.00 | 96 | 1023.8 |
| 20260906062619 | 13 | 180 | 0.0 | 0.0 | 0.00 | 0.03 | 0.00 | 96 | 1023.7 |
| 20260906061621 | 14 | 180 | 0.0 | 0.0 | 0.00 | 0.03 | 0.00 | 96 | 1023.4 |
| 20260906055619 | 14 | 180 | 0.0 | 0.0 | 0.00 | 0.03 | 0.00 | 96 | 1023.5 |
| 20260906054619 | 14 | 180 | 0.0 | 0.0 | 0.00 | 0.03 | 0.00 | 96 | 1023.4 |
| 20260906053623 | 14 | 180 | 0.0 | 0.0 | 0.00 | 0.03 | 0.00 | 94 | 1023.2 |
| 20260906052721 | 14 | 180 | 0.0 | 0.0 | 0.00 | 0.03 | 0.00 | 95 | 1023.0 |
| 20260906051821 | 14 | 180 | 0.0 | 0.0 | 0.00 | 0.03 | 0.00 | 94 | 1023.0 |
| 20260906051719 | 14 | 180 | 0.0 | 0.0 | 0.00 | 0.03 | 0.00 | 94 | 1023.0 |
| 20260906045729 | 15 | 180 | 0.0 | 0.0 | 0.00 | 0.03 | 0.03 | 93 | 1022.9 |
| 20260906044728 | 15 | 180 | 0.0 | 0.0 | 0.00 | 0.03 | 0.03 | 94 | 1022.8 |
| 20260906043730 | 15 | 180 | 0.0 | 0.0 | 0.00 | 0.03 | 0.03 | 93 | 1022.8 |
| 20260906042728 | 15 | 180 | 0.0 | 0.0 | 0.00 | 0.03 | 0.03 | 93 | 1022.9 |
| 20260906040827 | 15 | 180 | 0.0 | 0.0 | 0.00 | 0.03 | 0.03 | 92 | 1023.0 |
| 20260906035831 | 16 | 180 | 0.0 | 0.0 | 0.00 | 0.03 | 0.03 | 91 | 1023.0 |
| 20260906034828 | 16 | 180 | 0.0 | 0.0 | 0.00 | 0.03 | 0.03 | 91 | 1022.8 |
| 20260906033827 | 16 | 180 | 0.0 | 0.0 | 0.00 | 0.03 | 0.03 | 90 | 1022.5 |
| 20260906032828 | 16 | 180 | 0.0 | 0.0 | 0.00 | 0.03 | 0.03 | 90 | 1022.6 |
| 20260906031831 | 16 | 180 | 0.0 | 0.0 | 0.00 | 0.03 | 0.03 | 89 | 1022.6 |
| 20260906030829 | 17 | 180 | 0.0 | 0.0 | 0.00 | 0.03 | 0.03 | 89 | 1022.6 |
| 20260906025928 | 17 | 180 | 0.0 | 0.0 | 0.00 | 0.03 | 0.03 | 88 | 1022.6 |
| 20260906024930 | 17 | 180 | 0.0 | 0.0 | 0.00 | 0.03 | 0.03 | 87 | 1022.5 |
| 20260906022930 | 18 | 180 | 0.0 | 0.0 | 0.00 | 0.03 | 0.03 | 84 | 1022.5 |
| 20260906022828 | 18 | 180 | 0.0 | 0.0 | 0.00 | 0.03 | 0.03 | 84 | 1022.5 |
| 20260906021828 | 18 | 180 | 0.0 | 0.0 | 0.00 | 0.03 | 0.03 | 83 | 1022.5 |
| 20260906015831 | 19 | 180 | 0.0 | 1.6 | 0.00 | 0.03 | 0.03 | 79 | 1022.3 |
| 20260906014827 | 19 | 180 | 0.0 | 0.0 | 0.00 | 0.03 | 0.03 | 78 | 1022.3 |
| 20260906014729 | 19 | 180 | 0.0 | 0.0 | 0.00 | 0.03 | 0.03 | 77 | 1022.1 |
| 20260906013729 | 20 | 180 | 0.0 | 0.0 | 0.00 | 0.03 | 0.03 | 76 | 1022.1 |
| 20260906011728 | 20 | 157 | 0.0 | 0.0 | 0.00 | 0.03 | 0.03 | 73 | 1021.8 |
| 20260906010729 | 20 | 157 | 0.0 | 0.0 | 0.00 | 0.03 | 0.03 | 72 | 1021.9 |
| 20260906005827 | 21 | 112 | 0.0 | 0.0 | 0.00 | 0.03 | 0.03 | 73 | 1021.6 |
| 20260906005728 | 21 | 112 | 0.0 | 0.0 | 0.00 | 0.03 | 0.03 | 73 | 1021.6 |
| 20260906004729 | 21 | 45 | 0.0 | 1.6 | 0.00 | 0.03 | 0.03 | 74 | 1021.4 |
| 20260906003729 | 21 | 157 | 0.0 | 0.0 | 0.00 | 0.03 | 0.03 | 74 | 1021.3 |
| 20260906002827 | 21 | 157 | 0.0 | 1.6 | 0.00 | 0.03 | 0.03 | 71 | 1021.3 |
| 20260906001830 | 22 | 157 | 0.0 | 0.0 | 0.00 | 0.03 | 0.03 | 66 | 1021.3 |
| 20260906000927 | 22 | 157 | 0.0 | 0.0 | 0.00 | 0.03 | 0.03 | 62 | 1021.2 |
| 20260906000027 | 23 | 157 | 0.0 | 0.0 | 0.00 | 0.03 | 0.03 | 59 | 1021.2 |
| 20260905235028 | 23 | 157 | 0.0 | 0.0 | 0.00 | 0.03 | 0.03 | 57 | 1021.2 |
| 20260905233129 | 23 | 135 | 0.0 | 1.6 | 0.00 | 0.08 | 0.03 | 55 | 1021.1 |
| 20260905232128 | 24 | 135 | 0.0 | 1.6 | 0.00 | 0.08 | 0.03 | 56 | 1021.1 |
| 20260905231130 | 24 | 110 | 1.6 | 3.2 | 0.00 | 0.08 | 0.03 | 54 | 1021.1 |
| 20260905230130 | 24 | 114 | 0.0 | 3.2 | 0.00 | 0.08 | 0.03 | 54 | 1021.2 |
| 20260905225130 | 25 | 133 | 0.0 | 3.2 | 0.00 | 0.08 | 0.03 | 52 | 1021.1 |
| 20260905224228 | 25 | 337 | 0.0 | 1.6 | 0.00 | 0.08 | 0.03 | 50 | 1021.1 |
| 20260905223227 | 26 | 96 | 3.2 | 4.8 | 0.00 | 0.10 | 0.03 | 50 | 1021.2 |
| 20260905223129 | 26 | 78 | 1.6 | 4.8 | 0.00 | 0.10 | 0.03 | 50 | 1021.2 |
| 20260905222128 | 26 | 315 | 1.6 | 6.4 | 0.00 | 0.10 | 0.03 | 49 | 1021.1 |
| 20260905221130 | 27 | 120 | 0.0 | 1.6 | 0.00 | 0.10 | 0.03 | 47 | 1021.1 |
| 20260905220129 | 26 | 360 | 0.0 | 0.0 | 0.00 | 0.10 | 0.03 | 49 | 1021.2 |
| 20260905215129 | 26 | 340 | 4.8 | 6.4 | 0.00 | 0.10 | 0.03 | 49 | 1021.3 |
| 20260905214128 | 26 | 315 | 1.6 | 3.2 | 0.00 | 0.10 | 0.03 | 51 | 1021.2 |
| 20260905213128 | 25 | 341 | 0.0 | 3.2 | 0.00 | 0.10 | 0.03 | 53 | 1021.2 |
| 20260905212127 | 25 | 117 | 1.6 | 3.2 | 0.00 | 0.10 | 0.03 | 54 | 1021.2 |
| 20260905211129 | 25 | 331 | 1.6 | 3.2 | 0.00 | 0.10 | 0.03 | 54 | 1021.2 |
| 20260905210128 | 25 | 22 | 0.0 | 4.8 | 0.00 | 0.10 | 0.03 | 54 | 1021.1 |
| 20260905204231 | 25 | 90 | 0.0 | 3.2 | 0.00 | 0.10 | 0.03 | 53 | 1020.8 |
| 20260905203229 | 25 | 58 | 0.0 | 1.6 | 0.00 | 0.10 | 0.03 | 53 | 1021.2 |
| 20260905202228 | 25 | 56 | 1.6 | 4.8 | 0.00 | 0.10 | 0.03 | 53 | 1021.2 |
| 20260905201229 | 25 | 14 | 4.8 | 8.0 | 0.00 | 0.10 | 0.03 | 53 | 1021.3 |
| 20260905200327 | 25 | 21 | 3.2 | 6.4 | 0.00 | 0.10 | 0.03 | 52 | 1021.3 |
| 20260905195329 | 26 | 360 | 0.0 | 1.6 | 0.00 | 0.10 | 0.03 | 51 | 1021.2 |
| 20260905194326 | 27 | 22 | 4.8 | 11.3 | 0.00 | 0.10 | 0.03 | 51 | 1021.4 |
| 20260905194230 | 27 | 22 | 4.8 | 8.0 | 0.00 | 0.10 | 0.03 | 51 | 1021.4 |
| 20260905193229 | 27 | 88 | 1.6 | 4.8 | 0.00 | 0.10 | 0.03 | 50 | 1021.4 |
| 20260905192327 | 26 | 169 | 0.0 | 3.2 | 0.00 | 0.10 | 0.03 | 51 | 1021.4 |
| 20260905191327 | 26 | 149 | 1.6 | 3.2 | 0.00 | 0.10 | 0.03 | 51 | 1021.6 |
| 20260905190328 | 26 | 139 | 0.0 | 3.2 | 0.00 | 0.10 | 0.03 | 53 | 1021.4 |
| 20260905185329 | 25 | 170 | 4.8 | 6.4 | 0.00 | 0.10 | 0.03 | 54 | 1021.5 |
| 20260905185228 | 25 | 137 | 3.2 | 6.4 | 0.00 | 0.10 | 0.03 | 55 | 1021.4 |
| 20260905184229 | 26 | 343 | 1.6 | 4.8 | 0.00 | 0.10 | 0.03 | 53 | 1021.5 |
| 20260905183227 | 26 | 340 | 1.6 | 6.4 | 0.00 | 0.10 | 0.03 | 51 | 1021.7 |
| 20260905182228 | 26 | 85 | 1.6 | 3.2 | 0.00 | 0.10 | 0.03 | 53 | 1021.9 |
| 20260905181327 | 26 | 111 | 1.6 | 3.2 | 0.00 | 0.10 | 0.03 | 53 | 1022.0 |
| 20260905180330 | 26 | 3 | 1.6 | 6.4 | 0.00 | 0.10 | 0.03 | 55 | 1021.9 |
| 20260905175428 | 25 | 156 | 3.2 | 6.4 | 0.00 | 0.10 | 0.03 | 56 | 1021.9 |
| 20260905174427 | 25 | 90 | 1.6 | 4.8 | 0.00 | 0.10 | 0.03 | 57 | 1021.9 |